Regional Weather Roundup
Issued by NWS

Home | Current Version | Previous Version | Graphics & Text | Print | Product List | Glossary On
Versions: 1 2 3 4 5 6 7 8 9 10 11 12 13 14 15 16 17 18 19 20 21 22 23 24 25 26 27 28 29 30 31 32 33 34 35 36 37 38 39 40 41 42 43 44 45 46 47 48 49 50
000
ASUS43 KMPX 161901
RWRMN
WEATHER ROUNDUP FOR MINNESOTA
NATIONAL WEATHER SERVICE TWIN CITIES/CHANHASSEN MN
200 PM CDT TUE SEP 16 2014


NOTE: "FAIR" INDICATES FEW OR NO CLOUDS BELOW 12,000 FEET WITH NO
SIGNIFICANT WEATHER AND/OR OBSTRUCTIONS TO VISIBILITY. N/A MEANS
CURRENT SKY AND/OR WEATHER CONDITIONS ARE NOT AVAILABLE.

MNZ060>063-068>070-162000-
   Twin Cities Metro

CITY           SKY/WX    TMP DP  RH WIND       PRES   REMARKS
TWIN CITIES    MOSUNNY   65  40  39 SW13      30.11F
ST PAUL        SUNNY     65  43  44 SW14      30.11F
CRYSTAL        SUNNY     66  42  41 SW10      30.10F
BLAINE         SUNNY     66  43  42 SW9       30.10F
LAKEVILLE      SUNNY     64  45  48 SW6       30.11F
SOUTH ST PAUL  SUNNY     65  40  39 S9        30.11F
LAKE ELMO      FAIR      64  43  45 S8        30.12F
$$
MNZ001>005-007-008-013>017-022>024-027-028-162000-
   Northwest Minnesota

CITY           SKY/WX    TMP DP  RH WIND       PRES   REMARKS
BEMIDJI        SUNNY     69  41  36 W13       30.02S
HALLOCK        MOSUNNY   66  43  42 CALM      29.97F
ROSEAU         PTSUNNY   57  46  67 CALM      30.00S
WARROAD        MOSUNNY   55  46  71 W5        30.00S
THIEF RVR FALL SUNNY     66  45  45 W9        30.00F
CROOKSTON      SUNNY     70  43  37 W9        30.00F
FOSSTON        SUNNY     70  45  40 SW10      30.01F
DETROIT LAKES  SUNNY     64  37  36 SW7       30.05F
MOORHEAD       SUNNY     70  34  26 SW6       30.03F
PARK RAPIDS    SUNNY     67  39  35 W8        30.04F
MAHNOMEN       FAIR      68  39  35 SW9G16    30.03F
$$
MNZ006-009>011-018-025>026-162000-
   North Central Minnesota

CITY           SKY/WX    TMP DP  RH WIND       PRES   REMARKS
BAUDETTE       CLOUDY    56  45  66 CALM      30.00S
FLAG ISLAND    PTSUNNY   59  50  72 S6        29.97F
INTL FALLS     CLOUDY    57  46  66 W5        30.00S
WASKISH        PTSUNNY   63  48  59 SW5       30.00F
BIG FORK       SUNNY     66  43  42 SW10      30.01S
LONGVILLE      SUNNY     68  43  40 SW8       30.03F
GRAND RAPIDS   SUNNY     64  43  45 SW12      30.03F
CRANE LAKE     CLOUDY    57  46  67 NW5       30.00S
ORR            PTSUNNY   66  41  39 W6        29.96F
COOK           MOSUNNY   66  43  42 W10G18    29.99F
WALKER         FAIR      67  42  39 SW9       30.03F
$$
MNZ012-019>021-037-162000-
   Northeast Minnesota

CITY           SKY/WX    TMP DP  RH WIND       PRES   REMARKS
DULUTH         MOSUNNY   68  41  37 W15       30.02F
ELY            MOSUNNY   64  43  45 W9        29.97F
HIBBING        PTSUNNY   68  43  40 VRB6G16   30.02S
EVELETH        SUNNY     64  43  45 W13       30.02S
DULUTH HARBOR  SUNNY     70  43  37 SW15      30.02F
TWO HARBORS    SUNNY     68  46  45 W14G20    29.98F
SILVER BAY     SUNNY     68  48  49 W9        29.96F
GRAND MARAIS     N/A     55  48  77 SW14      29.95F
G MARAIS ARPRT MOSUNNY   61  41  48 W8G21     29.97S
$$
MNZ029>031-032-039>041-046>048-054>057-064-162000-
   West Central Minnesota

CITY           SKY/WX    TMP DP  RH WIND       PRES   REMARKS
FERGUS FALLS   SUNNY     68  34  28 S9        30.04F
WHEATON        SUNNY     68  43  40 SE10G16   30.04F
MORRIS         SUNNY     70  43  37 S9        30.04F
ALEXANDRIA     SUNNY     64  41  42 S9        30.07F
ELBOW LAKE     FAIR      66  40  38 SE9       30.04F
WADENA         SUNNY     66  39  37 SW8       30.06F
GLENWOOD       SUNNY     64  43  45 S8        30.07F
APPLETON       SUNNY     70  41  35 S7        30.04F
BENSON         SUNNY     66  45  45 SW10G16   30.06F
ORTONVILLE     MOSUNNY   68  43  40 S7        30.03F
MADISON        SUNNY     72  39  30 S8        30.04F
WILLMAR        FAIR      66  39  37 S6        30.09F
$$
MNZ033>034-036-042>043-049>051-058-059-162000-
   Central Minnesota

CITY           SKY/WX    TMP DP  RH WIND       PRES   REMARKS
ST CLOUD       SUNNY     66  39  37 SW6       30.08F
SAUK CENTRE    FAIR      65  40  41 SW8       30.08F
PAYNESVILLE    SUNNY     62  41  46 S8        30.09F
AITKIN         SUNNY     70  43  37 SW9       30.04F
PINE RIVER     SUNNY     66  45  45 SW6       30.08F
BRAINERD       SUNNY     65  40  39 W10       30.06F
STAPLES        SUNNY     66  36  32 W9        30.06F
LONG PRAIRIE   FAIR      64  39  39 SE7       30.07F
LITTLE FALLS   SUNNY     64  36  34 SW9       30.08F
LITCHFIELD     SUNNY     66  43  42 SW8       30.10F
BUFFALO        SUNNY     64  42  44 SW5       30.11F
MAPLE LAKE     SUNNY     66  47  49 S5        30.10F
$$
MNZ037-044-045-052-053-162000-
   East Central Minnesota

CITY           SKY/WX    TMP DP  RH WIND       PRES   REMARKS
PRINCETON      SUNNY     66  43  42 SW9G16    30.09F
MORA           SUNNY     64  45  48 SW8       30.10F
CAMBRIDGE      SUNNY     68  46  45 S12       30.07F
RUSH CITY      SUNNY     65  43  44 SW8       30.09F
MOOSE LAKE     SUNNY     64  37  36 W12G18    30.04F
HINCKLEY       FAIR      64  45  48 W9G18     30.08F
CLOQUET        SUNNY     66  37  34 W13G22    30.04F
MCGREGOR       SUNNY     66  41  39 W6        30.06F
$$
MNZ071>073-080-081-089-090-097-098-162000-
   Southwest Minnesota

CITY           SKY/WX    TMP DP  RH WIND       PRES   REMARKS
MONTEVIDEO     SUNNY     70  45  40 SW8       30.07F
GRANITE FALLS  SUNNY     67  44  43 S13       30.08F
CANBY          SUNNY     68  46  45 S8        30.05F
MARSHALL       SUNNY     66  43  42 SW8G16    30.06F
REDWOOD FALLS  SUNNY     66  43  43 S13       30.09F
OLIVIA         SUNNY     64  43  45 S10       30.08F
PIPESTONE      SUNNY     66  45  45 S13       30.07F
WINDOM         SUNNY     66  45  45 S10G16    30.10F
WORTHINGTON    MOSUNNY   64  43  45 S9        30.11F
JACKSON        SUNNY     64  43  45 S12       30.12F
TRACY          SUNNY     66  44  46 S9        30.08F
SLAYTON        SUNNY     64  40  41 CALM      30.10F
$$
MNZ065>067-074>077-082>085-091>093-162000-
   South Central Minnesota

CITY           SKY/WX    TMP DP  RH WIND       PRES   REMARKS
MANKATO        SUNNY     64  41  42 S14       30.12F
NEW ULM        SUNNY     64  45  48 SW10G16   30.11F
ST JAMES       SUNNY     66  39  37 S9        30.12F
FAIRMONT       SUNNY     64  41  42 SW9       30.12F
GLENCOE        SUNNY     66  40  38 SW6       30.10F
FARIBAULT      MOSUNNY   68  37  32 SW3       30.13F
OWATONNA       SUNNY     64  43  45 SW9       30.13F
WASECA         SUNNY     63  36  36 SW10      30.14F
ALBERT LEA     SUNNY     64  43  45 SW9       30.13F
$$
MNZ078>079-086>088-094>096-162000-
   Southeast Minnesota

CITY           SKY/WX    TMP DP  RH WIND       PRES   REMARKS
ROCHESTER      MOSUNNY   62  42  47 W10       30.16F
RED WING       SUNNY     66  37  34 W7        30.11F
STANTON        SUNNY     65  42  43 SW8       30.11F
DODGE CENTER   MOSUNNY   64  43  45 CALM      30.13F
WINONA         SUNNY     64  41  42 S5        30.14F
AUSTIN         SUNNY     63  43  48 SW9G16    30.13F
PRESTON        SUNNY     62  49  62 SW8       30.15F
$$
ABBREVIATIONS USED IN REMARKS
   TC - TEMPERATURES IN CELSIUS
  WCI - WIND CHILL INDEX
   HX - HEAT INDEX
  VSB - VISIBILITY
$$



USA.gov is the U.S. government's official web portal to all federal, state and local government web resources and services.